Theta_e
297 296 297 300 309 313 317 320 324 326 328 328 326 325 326 325 325 327 328 331 330 326 322 321 317 314 311 310 307 302 299 294 293 291 290 288 289 289 290 292 295 296 294
293 296 296 295 300 309 316 319 322 324 326 328 329 329 328 326 324 321 323 328 330 330 326 323 317 314 312 310 306 301 296 294 294 293 290 288 287 287 289 288 289 293 293
293 293 294 295 294 298 308 316 320 323 326 327 322 313 312 310 312 313 318 320 327 329 328 325 319 315 314 310 306 303 302 295 293 293 294 286 289 283 285 286 287 289 288
292 293 293 294 294 295 301 310 316 321 323 325 321 320 322 321 321 322 315 316 319 324 327 326 322 318 315 313 307 306 305 303 294 294 293 293 291 288 286 283 286 286 287
295 296 296 296 295 295 297 306 312 317 318 321 322 320 319 318 313 310 311 312 312 320 325 326 322 319 317 315 310 306 304 304 302 296 293 294 291 290 287 289 282 285 285
293 294 295 296 297 296 298 303 309 311 313 315 315 317 317 312 306 305 306 307 308 310 316 321 322 320 317 314 311 307 305 304 304 300 301 297 294 292 287 286 284 282 286
294 295 295 295 296 297 297 300 304 304 309 311 311 313 314 310 309 308 308 303 305 304 308 315 318 318 317 315 313 308 306 305 304 303 299 301 300 300 296 293 289 284 286
294 294 295 296 296 296 298 298 300 301 302 305 306 306 307 308 310 307 307 306 307 307 306 307 314 317 316 315 313 310 307 306 305 304 304 301 301 301 298 297 294 286 284
294 295 296 296 297 297 297 298 299 299 299 300 301 301 302 303 305 304 303 305 303 303 303 303 305 307 311 314 313 312 309 306 304 304 303 302 303 302 299 297 297 295 295
294 295 295 296 296 296 296 297 297 297 298 298 298 299 300 301 302 302 301 302 302 301 300 301 302 302 304 305 307 310 309 307 305 304 303 302 302 302 299 297 295 296 297
294 295 295 295 295 295 296 296 296 297 297 297 297 297 297 298 299 299 301 301 300 300 301 301 301 301 301 302 305 306 306 304 303 303 301 300 301 300 298 296 295 293 294
296 295 295 295 296 296 295 295 295 296 296 297 297 297 297 297 297 297 299 299 299 298 300 299 299 300 302 304 303 303 303 303 300 301 299 299 299 297 298 295 293 292 292
293 294 295 295 295 295 295 295 295 295 295 295 295 296 296 296 296 297 297 297 297 296 296 295 296 299 302 302 302 303 302 301 300 300 298 298 296 295 296 294 293 292 291
294 294 294 294 294 295 295 295 295 295 294 294 294 294 294 295 295 295 295 295 295 294 293 293 295 294 298 299 299 299 298 298 298 298 297 296 296 295 294 290 290 288 286
293 293 293 293 293 293 293 293 293 293 291 291 291 291 292 292 292 291 290 290 289 291 292 291 289 290 291 295 294 293 294 294 294 291 291 292 291 291 293 289 287 286 285
292 292 293 293 293 293 293 292 291 290 289 289 288 288 286 286 286 287 287 287 288 288 288 288 287 287 289 292 294 293 290 289 289 289 288 288 286 288 291 292 291 288 286
291 291 291 292 292 291 291 291 291 288 286 285 286 285 285 285 286 285 285 286 287 286 286 286 286 285 286 291 293 292 288 287 287 287 287 285 285 285 286 290 290 289 290
290 291 291 291 291 290 290 289 287 286 286 286 284 282 284 283 283 284 284 284 285 283 282 282 282 281 282 289 291 291 286 285 285 285 285 285 284 284 284 285 284 284 285
291 291 290 289 289 289 289 286 286 285 285 285 285 284 282 282 282 281 281 281 279 278 277 279 276 277 284 287 289 289 285 284 283 284 284 284 283 285 287 284 282 282 283
289 289 288 288 288 289 287 284 285 283 284 284 284 282 281 281 283 282 280 278 275 278 278 280 283 283 284 286 288 287 283 282 281 282 282 283 283 286 287 283 282 281 282
287 287 286 286 287 286 284 283 282 282 283 281 280 278 278 277 278 277 275 273 273 276 275 278 280 281 282 283 288 286 283 282 281 281 281 282 286 287 287 285 283 283 283
286 285 284 284 285 283 280 280 280 282 279 278 277 276 278 275 277 269 271 269 270 272 277 279 279 279 281 284 287 286 284 283 281 280 281 282 286 287 287 284 286 287 284
284 284 281 281 282 278 277 278 280 278 278 276 276 279 280 274 272 269 270 270 268 270 275 278 278 277 279 283 287 286 286 284 281 282 283 285 286 287 287 287 287 283 281
280 278 277 278 278 279 276 276 276 276 273 273 275 279 279 274 270 272 272 275 275 278 278 278 279 279 279 281 283 284 284 283 282 283 283 285 286 287 285 284 285 284 282
278 276 276 277 277 277 277 274 274 279 278 274 274 276 275 272 272 275 275 275 276 280 279 279 279 278 278 281 285 284 282 281 282 282 282 282 281 281 281 281 281 281 281
276 277 275 274 276 274 274 274 269 272 277 277 278 279 279 274 275 279 279 284 284 284 284 283 281 279 282 286 286 285 285 285 285 282 280 280 280 278 277 277 277 276 273
Wind_Speed
10 10 9 10 9 8 9 12 12 13 9 7 8 7 10 6 5 5 7 10 11 12 11 9 8 8 9 11 8 4 5 1 3 4 2 2 4 4 4 3 3 4 4
6 9 8 8 10 14 16 12 15 13 13 11 9 7 6 5 4 4 6 9 11 13 11 11 10 12 9 9 10 8 5 3 6 3 3 2 4 5 7 4 5 7 3
10 7 7 8 7 9 13 15 17 15 14 14 4 3 4 2 2 3 5 8 9 10 12 12 10 10 9 10 13 13 16 9 8 6 3 3 7 1 2 9 6 6 5
5 5 6 6 7 9 6 9 10 13 11 10 8 11 10 10 9 8 5 6 10 10 11 12 12 13 11 12 12 12 12 9 9 6 9 3 2 5 4 3 7 7 9
7 8 9 5 4 1 5 6 7 7 7 9 9 8 8 5 2 3 5 6 6 9 10 12 12 13 10 12 12 11 13 11 8 9 3 10 2 2 3 4 4 4 8
8 7 6 7 6 6 5 3 7 6 7 7 7 10 11 7 4 4 4 4 4 5 9 9 10 11 11 11 11 13 15 14 14 11 10 9 6 11 6 6 5 4 4
8 8 10 8 8 8 6 4 5 5 6 7 8 9 10 7 9 7 6 5 5 4 8 10 10 8 10 11 10 12 13 14 13 16 12 12 12 7 9 8 5 5 3
7 7 7 6 7 6 5 4 4 4 5 6 6 5 6 4 6 6 5 6 7 6 6 9 11 11 9 9 9 8 11 12 14 17 15 12 11 11 9 11 8 4 6
6 7 7 5 6 6 6 5 3 2 2 5 5 6 6 6 7 7 5 5 5 5 7 8 9 10 12 13 11 10 11 11 12 13 14 13 12 11 9 10 10 11 8
7 7 7 8 7 6 6 5 5 4 4 4 4 5 6 6 6 6 7 8 7 7 7 9 10 9 10 10 11 12 11 11 10 9 13 13 10 11 9 10 10 11 12
4 5 5 4 3 3 5 6 6 7 7 5 5 6 6 6 5 6 7 8 7 7 9 9 10 11 10 9 10 12 12 11 12 11 12 14 13 10 8 9 9 10 9
6 6 6 6 7 7 7 6 6 7 7 6 7 7 7 5 6 7 7 6 8 7 9 8 9 9 10 10 11 13 11 13 12 13 12 13 9 12 12 9 12 11 11
7 7 8 8 7 7 7 7 7 8 7 6 7 8 8 7 7 7 7 7 7 8 7 7 8 10 11 11 12 13 12 13 13 12 12 14 12 12 10 10 10 9 7
6 6 6 6 6 6 6 7 7 6 7 8 7 8 8 7 7 7 7 7 7 7 7 7 8 8 10 11 11 11 11 11 11 11 10 11 11 12 11 9 10 6 6
7 6 6 6 4 3 3 4 3 3 4 6 6 6 6 7 8 8 8 7 7 7 7 7 7 7 7 8 9 8 10 9 9 6 7 7 8 11 10 7 7 8 7
4 7 7 9 10 8 7 6 6 6 6 7 8 8 6 6 6 7 7 7 7 7 6 7 7 7 6 11 13 10 7 6 6 7 6 6 5 8 12 15 13 13 10
5 6 7 6 7 8 8 12 12 8 7 6 7 7 7 9 9 8 7 7 7 6 7 6 6 6 6 9 11 13 5 5 5 6 5 4 3 6 6 12 13 13 14
4 5 6 7 8 7 7 7 8 9 10 10 6 4 6 6 7 8 8 7 5 4 5 5 5 3 5 8 9 9 4 4 5 5 5 5 5 6 6 5 5 4 4
3 4 4 5 7 8 8 8 11 8 8 9 10 9 7 9 8 7 7 5 3 3 3 3 3 3 4 6 7 5 3 2 3 3 4 4 5 8 13 7 7 7 6
4 5 6 5 7 8 6 7 10 9 11 10 11 9 8 8 11 9 8 4 3 3 3 3 3 4 4 5 7 5 2 3 2 1 2 5 5 10 12 7 8 7 7
5 5 5 6 8 7 6 8 8 11 8 7 8 7 6 6 7 6 3 4 4 3 2 1 2 3 4 3 4 7 2 1 2 1 1 0 6 8 10 9 6 6 8
6 4 5 6 7 6 3 7 9 9 7 8 8 7 8 5 5 4 4 3 3 2 3 3 2 2 3 2 8 8 5 5 3 2 1 2 5 6 11 7 10 12 8
6 4 5 7 8 4 3 7 9 6 10 10 10 9 10 6 4 4 5 3 1 2 2 2 2 2 2 1 10 8 7 7 3 2 3 4 5 9 9 11 13 9 4
5 3 4 6 9 6 5 7 8 6 6 9 9 10 10 7 4 2 2 4 3 3 2 2 2 1 2 0 3 3 4 7 4 4 3 4 7 8 6 3 6 5 4
3 3 5 6 10 8 10 6 6 7 7 7 7 8 6 5 4 3 3 3 3 3 2 1 0 1 2 1 6 5 4 3 5 4 3 4 4 5 4 3 4 3 3
2 6 7 7 11 7 10 8 4 6 7 8 7 9 8 3 3 3 3 6 6 5 3 5 4 1 3 6 10 11 11 11 10 4 4 5 4 3 1 2 2 3 3
Wind_Direction
251 234 230 211 201 206 192 195 195 200 183 189 194 208 215 209 208 205 197 198 200 196 194 192 184 184 191 192 191 142 173 149 147 95 353 286 276 260 255 229 246 250 222
277 256 235 210 204 206 208 201 204 194 197 203 208 210 199 212 207 188 191 202 203 202 197 196 191 192 191 191 175 176 149 154 186 159 118 241 290 252 229 221 225 227 233
274 273 262 230 211 209 202 202 205 199 198 201 143 85 68 71 137 197 210 209 202 204 203 199 190 190 198 197 191 189 184 190 192 208 176 136 228 319 204 219 212 223 220
291 288 274 262 219 231 207 208 204 201 197 180 178 195 210 217 219 218 204 196 202 207 206 203 196 195 199 204 201 194 201 178 195 206 233 268 139 180 269 275 227 196 233
34 30 23 359 22 325 211 196 178 183 170 181 187 193 210 221 189 182 188 199 197 210 213 208 201 203 203 209 200 196 199 206 199 207 162 222 199 277 190 250 245 252 211
10 13 3 25 23 30 55 131 154 158 152 159 178 192 209 202 184 198 211 207 207 214 220 218 215 212 207 205 199 199 205 206 213 204 225 197 199 202 216 222 235 231 215
10 4 7 10 24 28 45 94 135 154 177 182 192 203 213 196 208 205 213 197 216 216 220 217 221 215 213 211 201 199 208 210 213 218 211 224 227 222 205 238 202 232 234
13 14 20 11 43 26 43 69 127 159 185 211 224 221 226 221 226 215 211 219 220 222 210 213 229 230 224 213 209 210 214 213 217 221 224 220 226 228 219 211 215 239 220
5 32 28 31 26 24 28 25 13 38 197 226 234 233 230 232 239 237 226 233 223 213 207 208 213 220 229 230 222 227 223 220 221 227 226 226 226 227 220 225 219 221 254
48 45 21 16 9 5 358 4 4 341 317 290 266 250 237 232 240 237 239 236 236 217 209 214 218 216 215 215 221 236 238 229 226 229 228 225 228 235 220 221 219 224 236
25 48 28 360 353 341 0 349 354 337 325 337 303 282 279 265 256 250 254 244 241 221 222 221 220 223 221 217 224 237 234 229 231 223 224 228 226 229 222 221 224 225 224
15 3 3 2 6 359 359 351 344 340 335 323 298 304 297 298 274 262 265 257 246 234 232 223 222 221 222 226 226 238 233 233 232 233 229 232 220 225 226 212 219 220 217
4 2 11 11 5 6 9 10 10 357 346 327 337 329 319 314 291 280 275 267 261 251 244 229 228 234 239 238 231 236 234 235 234 231 226 231 223 225 224 213 221 220 217
14 6 13 15 9 7 10 3 358 2 352 347 348 341 331 316 297 289 279 270 259 257 251 237 234 228 234 236 235 232 233 232 231 235 235 231 230 231 229 214 216 203 196
19 6 356 349 348 349 334 337 311 311 332 327 321 307 303 307 308 304 295 284 275 266 259 254 244 235 226 231 221 220 227 234 240 226 225 229 226 222 221 203 206 189 200
13 357 352 349 347 343 338 335 340 339 344 336 325 317 315 312 309 304 296 285 276 271 263 255 248 242 234 233 228 223 224 222 226 238 233 229 230 234 230 219 211 199 196
7 356 345 334 330 334 339 337 332 332 325 307 308 316 326 322 318 313 308 302 294 289 280 278 267 255 243 236 226 225 219 226 230 234 228 225 207 211 207 223 215 217 222
350 349 338 329 326 328 329 322 326 326 325 325 301 271 294 292 303 312 305 300 291 284 284 278 272 258 263 251 239 235 207 219 219 216 211 203 194 198 186 166 148 154 154
316 306 318 311 317 319 319 328 322 322 320 321 320 325 325 321 310 293 288 284 278 285 269 268 272 241 265 251 242 221 187 190 218 210 197 183 186 204 197 161 151 148 129
305 313 323 320 309 307 329 322 311 315 312 313 314 312 313 309 308 305 307 284 271 256 260 260 298 266 258 264 246 200 147 171 171 170 172 190 189 200 191 155 150 140 136
295 300 305 292 289 302 316 298 298 290 283 291 292 290 288 290 280 292 278 297 291 290 299 266 341 302 280 263 212 154 120 132 123 120 119 110 212 193 164 153 150 140 128
297 293 283 278 278 282 267 275 278 283 293 300 298 296 296 295 297 285 288 292 287 285 291 292 312 319 309 248 148 138 136 157 134 146 151 166 193 175 158 127 132 125 117
267 274 267 293 298 272 222 278 284 307 312 312 305 304 302 294 290 291 288 291 308 270 267 263 271 293 315 281 134 118 114 118 108 124 147 163 167 168 152 138 139 113 108
260 249 290 292 295 296 256 241 283 292 296 289 291 295 294 293 291 285 272 284 288 257 204 221 244 285 297 135 94 82 108 96 89 107 91 92 109 93 99 104 120 107 120
247 230 247 265 272 286 290 281 283 289 292 285 284 282 276 274 281 257 234 229 255 256 250 203 195 226 265 12 110 95 86 77 92 84 77 69 48 78 71 62 72 84 78
273 301 287 278 286 276 284 288 278 287 282 287 288 286 283 259 258 268 290 260 243 241 204 160 155 232 191 138 125 121 110 111 108 75 90 86 84 75 72 105 89 68 60